GW6928 Weather Reports


Display with metric or nautical units.
time (UTC)temp
F
wind
direction
speed
MPH
gust
MPH
rain 1hr
in
rain 24hr
in
rain mn
in
humidity
%
barometer
mb
20260505055000 44 107 4.0 6.0 0.00 0.00 0.07 93 1008.4
20260505054500 44 96 4.0 5.0 0.00 0.00 0.07 93 1007.7
20260505054015 45 92 3.0 4.0 0.00 0.00 0.07 93 1007.8
20260505053500 45 95 3.0 4.0 0.00 0.00 0.06 92 1007.9
20260505053001 45 47 3.0 4.0 0.00 0.00 0.06 93 1008.3
20260505052501 45 21 5.0 5.0 0.00 0.00 0.06 93 1007.9
20260505052000 45 12 6.0 7.0 0.00 0.00 0.05 93 1008.3
20260505051500 45 11 4.0 6.0 0.00 0.00 0.05 92 1008.1
20260505051016 45 355 5.0 7.0 0.00 0.00 0.05 92 1008.1
20260505050501 45 347 5.0 7.0 0.00 0.00 0.05 92 1008.1
20260505041515 48 300 11.0 13.0 0.00 0.00 0.00 73 1006.5
20260505041016 49 284 6.0 10.0 0.00 0.00 0.00 67 1005.9
20260505040500 49 319 6.0 8.0 0.00 0.00 0.00 63 1005.4
20260505040000 49 312 1.0 5.0 0.00 0.00 0.00 63 1005.5
20260505035500 49 352 2.0 3.0 0.00 0.00 0.00 64 1005.4
20260505035000 49 344 0.0 2.0 0.00 0.00 0.00 63 1005.1
20260505034500 49 40 2.0 3.0 0.00 0.00 0.00 63 1005.1
20260505034001 49 55 2.0 3.0 0.00 0.00 0.00 63 1005.3
20260505033500 50 42 4.0 7.0 0.00 0.00 0.00 62 1005.0
20260505033000 50 44 3.0 7.0 0.00 0.00 0.00 61 1004.8
20260505032500 50 37 4.0 8.0 0.00 0.00 0.00 60 1004.7
20260505032000 50 39 5.0 10.0 0.00 0.00 0.00 60 1004.7
20260505031500 50 40 8.0 10.0 0.00 0.00 0.00 59 1004.8
20260505031002 50 48 6.0 11.0 0.00 0.00 0.00 58 1004.4
20260505030517 50 76 4.0 6.0 0.00 0.00 0.00 58 1004.3
20260505030015 50 92 5.0 5.0 0.00 0.00 0.00 59 1004.4
20260505025500 50 80 4.0 6.0 0.00 0.00 0.00 59 1004.4
20260505025002 50 77 4.0 7.0 0.00 0.00 0.00 59 1004.2
20260505024500 50 49 6.0 7.0 0.00 0.00 0.00 59 1004.2
20260505024000 50 41 4.0 7.0 0.00 0.00 0.00 59 1004.1
20260505023500 50 38 5.0 8.0 0.00 0.00 0.00 59 1004.1
20260505023002 50 26 3.0 3.0 0.00 0.00 0.00 60 1004.1
20260505022500 50 34 3.0 5.0 0.00 0.00 0.00 59 1004.0
20260505022000 50 44 6.0 10.0 0.00 0.00 0.00 59 1003.9
20260505021500 50 44 5.0 11.0 0.00 0.00 0.00 59 1003.9
20260505021000 50 34 7.0 12.0 0.00 0.00 0.00 59 1003.9
20260505020515 50 32 10.0 12.0 0.00 0.00 0.00 58 1004.2
20260505020000 50 31 14.0 15.0 0.00 0.00 0.00 58 1003.7
20260505015500 51 44 8.0 15.0 0.00 0.00 0.00 56 1003.4
20260505015002 52 19 12.0 18.0 0.00 0.00 0.00 54 1002.8
20260505014500 52 13 7.0 13.0 0.00 0.00 0.00 52 1002.5
20260505014000 53 3 9.0 13.0 0.00 0.00 0.00 51 1002.2
20260505013502 53 63 11.0 17.0 0.00 0.00 0.00 51 1002.5
20260505013000 52 52 11.0 17.0 0.00 0.00 0.00 52 1002.6
20260505012500 53 68 9.0 15.0 0.00 0.00 0.00 53 1002.5
20260505012015 53 28 12.0 17.0 0.00 0.00 0.00 49 1002.1
20260505011500 54 67 7.0 17.0 0.00 0.00 0.00 47 1001.8
20260505011000 54 15 16.0 22.0 0.00 0.00 0.00 45 1001.2
20260505010515 55 24 14.0 21.0 0.00 0.00 0.00 43 1001.2
20260505010000 55 353 17.0 26.0 0.00 0.00 0.00 43 1000.6
20260505005500 56 354 15.0 26.0 0.00 0.00 0.00 42 1000.3
20260505005015 56 352 19.0 22.0 0.00 0.00 0.00 39 999.9
20260505004500 57 19 15.0 19.0 0.00 0.00 0.00 37 999.6
20260505004015 57 31 10.0 18.0 0.00 0.00 0.00 36 999.3
20260505003515 57 21 13.0 17.0 0.00 0.00 0.00 36 999.1
20260505003015 57 50 11.0 17.0 0.00 0.00 0.00 35 999.8
20260505002500 58 16 17.0 21.0 0.00 0.00 0.00 35 999.2
20260505002000 58 29 11.0 19.0 0.00 0.00 0.00 36 998.9
20260505001502 58 29 12.0 17.0 0.00 0.00 0.00 35 999.0
20260505001000 58 12 13.0 18.0 0.00 0.00 0.00 35 998.7
20260505000500 58 40 10.0 16.0 0.00 0.00 0.00 34 998.6
20260505000000 58 37 10.0 11.0 0.00 0.00 0.00 34 999.0
20260504235500 58 356 11.0 14.0 0.00 0.00 0.00 34 998.9
20260504235000 58 340 19.0 24.0 0.00 0.00 0.00 33 998.6
20260504234500 58 344 10.0 21.0 0.00 0.00 0.00 33 998.6
20260504234000 59 3 13.0 17.0 0.00 0.00 0.00 34 998.6
20260504233500 59 15 19.0 26.0 0.00 0.00 0.00 33 998.4
20260504233000 59 12 14.0 23.0 0.00 0.00 0.00 32 998.0
20260504232500 59 8 11.0 25.0 0.00 0.00 0.00 31 998.4
20260504232000 59 2 10.0 19.0 0.00 0.00 0.00 34 997.9
20260504231500 59 23 18.0 24.0 0.00 0.00 0.00 31 998.1
20260504231000 58 24 17.0 32.0 0.00 0.00 0.00 34 997.9
20260504230515 59 23 21.0 31.0 0.00 0.00 0.00 34 997.8
20260504230002 59 22 17.0 30.0 0.00 0.00 0.00 33 997.7
20260504225517 59 11 18.0 26.0 0.00 0.00 0.00 34 997.4
20260504225000 59 29 18.0 31.0 0.00 0.00 0.00 33 997.7
20260504224500 60 0 20.0 28.0 0.00 0.00 0.00 32 997.2
20260504224000 60 18 23.0 34.0 0.00 0.00 0.00 31 996.8
20260504223500 62 20 19.0 23.0 0.00 0.00 0.00 28 996.0
20260504223000 64 57 12.0 17.0 0.00 0.00 0.00 23 995.3
20260504222502 64 55 7.0 21.0 0.00 0.00 0.00 23 995.2
20260504222001 63 22 10.0 18.0 0.00 0.00 0.00 24 995.2
20260504221500 63 38 16.0 22.0 0.00 0.00 0.00 24 995.9
20260504221000 63 21 5.0 12.0 0.00 0.00 0.00 24 995.3
20260504220500 63 357 9.0 17.0 0.00 0.00 0.00 25 995.1
20260504220000 63 31 9.0 20.0 0.00 0.00 0.00 25 995.6
20260504215500 63 44 12.0 16.0 0.00 0.00 0.00 24 994.9
20260504215000 63 1 17.0 25.0 0.00 0.00 0.00 25 995.2
20260504214501 63 16 11.0 24.0 0.00 0.00 0.00 25 995.2
20260504214000 64 13 17.0 25.0 0.00 0.00 0.00 24 994.6
20260504213500 64 66 9.0 19.0 0.00 0.00 0.00 22 994.7
20260504213000 65 25 11.0 19.0 0.00 0.00 0.00 21 994.5
20260504212515 65 43 13.0 18.0 0.00 0.00 0.00 22 994.2
20260504212001 65 39 10.0 17.0 0.00 0.00 0.00 22 994.3
20260504211515 66 359 7.0 15.0 0.00 0.00 0.00 22 994.1
20260504211000 65 345 7.0 16.0 0.00 0.00 0.00 22 994.5
20260504210500 66 45 3.0 13.0 0.00 0.00 0.00 21 994.3
20260504210000 66 59 4.0 16.0 0.00 0.00 0.00 22 994.1
20260504205500 65 341 4.0 13.0 0.00 0.00 0.00 22 994.6
20260504205017 65 5 7.0 11.0 0.00 0.00 0.00 22 994.6
20260504204501 66 6 7.0 12.0 0.00 0.00 0.00 22 994.6
20260504204000 66 89 3.0 15.0 0.00 0.00 0.00 22 994.7
20260504203500 66 58 6.0 13.0 0.00 0.00 0.00 23 994.7
20260504203000 65 55 13.0 14.0 0.00 0.00 0.00 23 994.9
20260504202500 64 19 6.0 14.0 0.00 0.00 0.00 24 995.5
20260504202000 64 53 13.0 19.0 0.00 0.00 0.00 24 995.7
20260504201501 64 53 17.0 23.0 0.00 0.00 0.00 25 995.7
20260504201000 64 115 5.0 15.0 0.00 0.00 0.00 26 995.9
20260504200502 64 60 23.0 25.0 0.00 0.00 0.00 25 995.7
20260504200001 64 82 8.0 24.0 0.00 0.00 0.00 25 995.8
20260504195502 64 25 4.0 31.0 0.00 0.00 0.00 24 995.5
20260504195000 63 17 19.0 31.0 0.00 0.00 0.00 26 996.0
20260504194500 65 38 6.0 29.0 0.00 0.00 0.00 24 995.3
20260504194015 63 320 23.0 34.0 0.00 0.00 0.00 26 996.0
20260504193500 64 340 18.0 27.0 0.00 0.00 0.00 27 995.6
20260504193000 64 336 20.0 27.0 0.00 0.00 0.00 23 995.5
20260504192500 63 8 14.0 24.0 0.00 0.00 0.00 23 995.8
20260504192000 64 355 20.0 21.0 0.00 0.00 0.00 23 995.4
20260504191500 64 336 5.0 10.0 0.00 0.00 0.00 23 995.4
20260504191000 64 11 1.0 7.0 0.00 0.00 0.00 22 995.2
20260504190500 64 337 9.0 14.0 0.00 0.00 0.00 21 995.3
20260504190000 65 31 10.0 16.0 0.00 0.00 0.00 21 995.1
20260504185502 65 36 8.0 11.0 0.00 0.00 0.00 21 994.7
20260504185015 65 81 4.0 11.0 0.00 0.00 0.00 21 994.6
20260504184502 68 354 10.0 16.0 0.00 0.00 0.00 19 993.6
20260504184000 66 116 2.0 8.0 0.00 0.00 0.00 20 994.5
20260504183515 66 163 4.0 8.0 0.00 0.00 0.00 21 994.6
20260504183002 65 286 7.0 13.0 0.00 0.00 0.00 22 995.3
20260504182515 65 300 10.0 18.0 0.00 0.00 0.00 21 995.3
20260504182001 66 308 7.0 13.0 0.00 0.00 0.00 21 994.6
20260504181500 65 299 6.0 8.0 0.00 0.00 0.00 22 995.4
20260504181002 66 4 8.0 12.0 0.00 0.00 0.00 21 994.7
20260504180500 66 134 9.0 16.0 0.00 0.00 0.00 20 995.1
20260504180000 65 267 2.0 4.0 0.00 0.00 0.00 21 995.5
20260504175500 66 268 4.0 13.0 0.00 0.00 0.00 21 995.4
20260504175000 66 294 7.0 19.0 0.00 0.00 0.00 20 995.3
20260504174516 66 254 9.0 19.0 0.00 0.00 0.00 22 995.5
20260504174000 67 345 10.0 16.0 0.00 0.00 0.00 21 994.8
20260504173500 65 197 4.0 9.0 0.00 0.00 0.00 21 995.8
20260504173000 65 139 3.0 9.0 0.00 0.00 0.00 22 995.9
20260504172515 66 288 11.0 20.0 0.00 0.00 0.00 22 995.7
20260504172000 64 342 8.0 12.0 0.00 0.00 0.00 22 996.3
20260504171500 64 325 6.0 18.0 0.00 0.00 0.00 22 996.9
20260504171001 64 300 12.0 23.0 0.00 0.00 0.00 22 996.6
20260504170517 66 304 7.0 23.0 0.00 0.00 0.00 22 995.8
20260504151003 61 283 16.0 21.0 0.00 0.00 0.00 25 998.5
20260504150500 61 287 20.0 23.0 0.00 0.00 0.00 25 998.6
20260504141000 58 177 3.0 7.0 0.00 0.00 0.00 31 999.8
20260504140500 56 173 3.0 6.0 0.00 0.00 0.00 34 1001.1
20260504130515 49 164 9.0 12.0 0.00 0.00 0.00 42 1004.3
20260504110515 47 125 8.0 10.0 0.00 0.00 0.00 41 1004.8
20260504100500 46 121 7.0 9.0 0.00 0.00 0.00 44 1005.4
20260504082000 44 155 1.0 4.0 0.00 0.00 0.00 58 1007.8
20260504081500 44 237 5.0 6.0 0.00 0.00 0.00 57 1007.8
20260504081015 47 331 11.0 13.0 0.00 0.00 0.00 49 1006.0
20260504080501 47 139 5.0 7.0 0.00 0.00 0.00 46 1005.7